Weather History for Anchorage, AK

Change the Weather History Date:

Monday, January 27, 2014

  Actual Average Record
Temperature  
Mean Temperature 41 °F 17 °F  
Max Temperature 50 °F 23 °F 50 °F (1926)
Min Temperature 31 °F 11 °F -34 °F (1947)
Degree Days  
Heating Degree Days 24    
Month to date heating degree days 941  
Since 1 July heating degree days 5300  
Cooling Degree Days 0    
Month to date cooling degree days 0  
Year to date cooling degree days 0  
Moisture  
Dew Point 31 °F    
Average Humidity 74    
Maximum Humidity 92    
Minimum Humidity 56    
Precipitation  
Precipitation T in 0.03 in 0.25 in (1976)
Month to date precipitation 1.37 0.63  
Year to date precipitation 1.37 0.63  
Snow  
Snow 0.00 in 0.30 in 4.00 in (1941)
Month to date snowfall 9.2 9.7  
Since 1 July snowfall 43.5 47.8  
Snow Depth 0.00 in    
Sea Level Pressure  
Sea Level Pressure 29.78 in    
Wind  
Wind Speed 5 mph (ESE)    
Max Wind Speed 20 mph    
Max Gust Speed 36 mph    
Visibility 10 miles    
Events Rain    
T = Trace of Precipitation, MM = Missing Value Source: NWS Daily Summary

Daily Weather History Graph

Daily Weather History Graph

Search for Another Location

Airport:

Trip Planner

Search our weather history database for the weather conditions in past years. The results will help you decide how hot, cold, wet, or windy it might be!

Date:

Astronomy

Jan. 27, 2014 Rise Set
Actual Time 9:31 AM AKST 4:54 PM AKST
Civil Twilight 8:40 AM AKST 5:46 PM AKST
Nautical Twilight 7:47 AM AKST 6:39 PM AKST
Astronomical Twilight 6:56 AM AKST 7:30 PM AKST
Moon 6:39 AM AKST (1/27) 1:34 PM AKST (1/27)
Length of Visible Light 9h 05m
Length of Day
7h 22m
Waning Crescent, 13% of the Moon is Illuminated
Jan 27
Waning Crescent
Jan 30
New
Feb 6
First Quarter
Feb 14
Full
Feb 22
Last Quarter

Hourly Weather History & Observations

Time (AKST) Temp. Windchill Dew Point Humidity Pressure Visibility Wind Dir Wind Speed Gust Speed Precip Events Conditions
12:53 AM 32.0 °F 27.5 °F 28.9 °F 88% 29.90 in 10.0 mi NW 4.6 mph - N/A   Clear
1:53 AM 32.0 °F 25.6 °F 28.9 °F 88% 29.88 in 10.0 mi NNW 6.9 mph - N/A   Clear
3:53 AM 36.0 °F 29.0 °F 30.0 °F 79% 29.82 in 10.0 mi North 9.2 mph - N/A   Clear
4:53 AM 33.1 °F 27.7 °F 28.9 °F 85% 29.78 in 10.0 mi East 5.8 mph - N/A   Partly Cloudy
5:53 AM 34.0 °F 29.8 °F 28.9 °F 82% 29.74 in 10.0 mi East 4.6 mph - N/A   Partly Cloudy
6:53 AM 35.1 °F 32.2 °F 28.9 °F 78% 29.73 in 10.0 mi SSE 3.5 mph - N/A   Scattered Clouds
7:53 AM 34.0 °F - 28.0 °F 79% 29.73 in 10.0 mi Calm Calm - N/A   Scattered Clouds
8:53 AM 32.0 °F - 28.0 °F 85% 29.72 in 10.0 mi Calm Calm - N/A   Scattered Clouds
9:53 AM 33.1 °F - 28.9 °F 85% 29.72 in 10.0 mi Calm Calm - N/A   Mostly Cloudy
10:53 AM 33.1 °F - 28.9 °F 85% 29.73 in 10.0 mi Calm Calm - N/A   Mostly Cloudy
11:53 AM 41.0 °F 38.0 °F 30.9 °F 67% 29.71 in 10.0 mi NNW 4.6 mph - N/A   Mostly Cloudy
12:53 PM 41.0 °F 35.8 °F 30.9 °F 67% 29.71 in 10.0 mi NNE 8.1 mph - N/A   Mostly Cloudy
1:53 PM 43.0 °F 38.8 °F 32.0 °F 65% 29.73 in 10.0 mi Variable 6.9 mph - 0.00 in Rain Light Rain
2:53 PM 48.0 °F - 35.1 °F 61% 29.72 in 10.0 mi SSE 20.7 mph 34.5 mph 0.00 in   Mostly Cloudy
3:53 PM 46.9 °F - 35.1 °F 63% 29.74 in 10.0 mi SE 8.1 mph - N/A   Mostly Cloudy
4:53 PM 46.0 °F 43.9 °F 35.1 °F 66% 29.77 in 10.0 mi Variable 4.6 mph - N/A   Mostly Cloudy
5:53 PM 46.0 °F 44.8 °F 34.0 °F 63% 29.78 in 10.0 mi East 3.5 mph - N/A   Mostly Cloudy
6:53 PM 48.0 °F - 34.0 °F 58% 29.80 in 10.0 mi SE 8.1 mph - N/A   Mostly Cloudy
7:53 PM 48.0 °F - 34.0 °F 58% 29.81 in 10.0 mi SE 10.4 mph - N/A   Mostly Cloudy
8:53 PM 46.0 °F 38.5 °F 35.1 °F 66% 29.81 in 10.0 mi SSE 19.6 mph 27.6 mph N/A   Mostly Cloudy
9:53 PM 43.0 °F 41.3 °F 33.1 °F 68% 29.83 in 10.0 mi Variable 3.5 mph - N/A   Mostly Cloudy
10:53 PM 43.0 °F 38.8 °F 34.0 °F 71% 29.85 in 10.0 mi South 6.9 mph - N/A   Mostly Cloudy
11:53 PM 41.0 °F 39.0 °F 32.0 °F 70% 29.86 in 10.0 mi SE 3.5 mph - N/A   Mostly Cloudy